Location: Rometta
(44.2000°N, 10.0500°E)
Time: 21:55:41
(UTC+00:00)

Lacrosse 5 - Pass Details

Date: 20 January 2021
Orbit: 715 x 724 km, 57.0° (Epoch: 03 March)

Event Time Altitude Azimuth Distance (km) Brightness Sun altitude
Rises 19:18:00 0° 305° (NW) 3,122 5.9 -32.8°
Reaches altitude 10° 19:20:33 10° 296° (WNW) 2,198 5.1 -33.2°
Enters shadow 19:24:16 31° 252° (WSW) 1,239 3.5 -33.9°
